Location: El Nido
(33.8656°N, 118.3615°W)
Time: 11:04:17
(UTC+00:00)

Cosmos 2242 Rocket - Pass Details

Date: 03 August 2024
Orbit: 616 x 647 km, 82.5° (Epoch: 10 September)

Event Time Altitude Azimuth Distance (km) Brightness Sun altitude
Rises 12:06:28 0° 351° (N) 2,894 7.3 -12.1°
Reaches altitude 10° 12:08:42 10° 350° (N) 1,988 6.4 -11.7°
Maximum altitude 12:13:05 75° 265° (W) 647 3.5 -10.9°
Drops below altitude 10° 12:17:28 10° 181° (S) 1,989 5.9 -10.2°
Sets 12:19:42 0° 179° (S) 2,897 6.7 -9.7°
